When you browse on this site, cookies collect data to enhance your experience and personalize the content and advertising you see.
Visit our Privacy Policy to learn more. By continuing to use the site, you agree to this use of cookies and data.
  • In Czech Republic
  • List of Countries
  • For 7 days
  • Water Temperature
  • Weather Map
  • Weather Widgets
  • user-avatar
    Login

    Hourly Weather Ghazni

    Today, 17 October, Thursday

    Time Temperature Precipitation Wind Pressure Humidity
    00:00 +10°C° 0 mm 1 mps 588 mmHg 29%
    01:00 +9°C° 0 mm 1 mps 587 mmHg 32%
    02:00 +8°C° 0 mm 1 mps 586 mmHg 35%
    03:00 +8°C° 0 mm 1 mps 586 mmHg 36%
    04:00 +7°C° 0 mm 1 mps 586 mmHg 38%
    05:00 +6°C° 0 mm 0 mps 586 mmHg 42%
    06:00 +7°C° 0 mm 0 mps 587 mmHg 38%
    07:00 +9°C° 0 mm 0 mps 588 mmHg 35%
    08:00 +10°C° 0 mm 0 mps 589 mmHg 31%
    09:00 +12°C° 0 mm 1 mps 589 mmHg 28%
    10:00 +14°C° 0 mm 1 mps 589 mmHg 26%
    11:00 +15°C° 0 mm 2 mps 590 mmHg 23%
    12:00 +16°C° 0 mm 2 mps 590 mmHg 21%
    13:00 +17°C° 0 mm 2 mps 589 mmHg 19%
    14:00 +18°C° 0 mm 3 mps 589 mmHg 17%
    15:00 +18°C° 0 mm 3 mps 589 mmHg 17%
    16:00 +18°C° 0 mm 3 mps 589 mmHg 16%
    17:00 +18°C° 0 mm 3 mps 589 mmHg 16%
    18:00 +16°C° 0 mm 3 mps 589 mmHg 19%
    19:00 +14°C° 0 mm 4 mps 589 mmHg 22%
    20:00 +12°C° 0 mm 4 mps 589 mmHg 25%
    21:00 +11°C° 0 mm 3 mps 588 mmHg 28%
    22:00 +10°C° 0 mm 3 mps 588 mmHg 31%
    23:00 +9°C° 0 mm 2 mps 588 mmHg 34%

    Tomorrow, 18 October, Friday

    Time Temperature Precipitation Wind Pressure Humidity
    00:00 +9°C° 0 mm 2 mps 587 mmHg 36%
    01:00 +9°C° 0 mm 1 mps 587 mmHg 38%
    02:00 +8°C° 0 mm 1 mps 586 mmHg 40%
    03:00 +8°C° 0 mm 1 mps 586 mmHg 41%
    04:00 +8°C° 0 mm 1 mps 586 mmHg 43%
    05:00 +7°C° 0 mm 1 mps 586 mmHg 44%
    06:00 +9°C° 0 mm 1 mps 587 mmHg 41%
    07:00 +10°C° 0 mm 1 mps 588 mmHg 38%
    08:00 +10°C° 0 mm 2 mps 589 mmHg 35%
    09:00 +13°C° 0 mm 2 mps 589 mmHg 31%
    10:00 +14°C° 0 mm 2 mps 590 mmHg 27%
    11:00 +16°C° 0 mm 2 mps 590 mmHg 23%
    12:00 +17°C° 0 mm 2 mps 590 mmHg 20%
    13:00 +17°C° 0 mm 3 mps 590 mmHg 18%
    14:00 +18°C° 0 mm 3 mps 590 mmHg 16%
    15:00 +18°C° 0 mm 3 mps 590 mmHg 15%
    16:00 +17°C° 0 mm 3 mps 590 mmHg 15%
    17:00 +17°C° 0 mm 3 mps 590 mmHg 15%
    18:00 +14°C° 0 mm 3 mps 589 mmHg 24%
    19:00 +12°C° 0 mm 3 mps 589 mmHg 34%
    20:00 +10°C° 0 mm 2 mps 588 mmHg 44%
    21:00 +9°C° 0 mm 2 mps 588 mmHg 47%
    22:00 +9°C° 0 mm 2 mps 588 mmHg 49%
    23:00 +8°C° 0 mm 2 mps 588 mmHg 52%

    Day after tomorrow, 19 October, Saturday

    Time Temperature Precipitation Wind Pressure Humidity
    00:00 +9°C° 0 mm 1 mps 588 mmHg 52%
    01:00 +9°C° 0 mm 1 mps 587 mmHg 53%
    02:00 +8°C° 0 mm 1 mps 587 mmHg 54%
    03:00 +8°C° 0 mm 1 mps 587 mmHg 56%
    04:00 +6°C° 0 mm 0 mps 587 mmHg 58%
    05:00 +6°C° 0 mm 0 mps 587 mmHg 60%
    06:00 +7°C° 0 mm 0 mps 588 mmHg 54%
    07:00 +9°C° 0 mm 0 mps 589 mmHg 48%
    08:00 +10°C° 0 mm 0 mps 590 mmHg 42%
    09:00 +13°C° 0 mm 1 mps 590 mmHg 38%
    10:00 +14°C° 0 mm 1 mps 591 mmHg 35%
    11:00 +15°C° 0 mm 1 mps 591 mmHg 31%
    12:00 +16°C° 0 mm 2 mps 591 mmHg 28%
    13:00 +17°C° 0 mm 2 mps 591 mmHg 25%
    14:00 +18°C° 0 mm 3 mps 591 mmHg 22%
    15:00 +18°C° 0 mm 3 mps 591 mmHg 22%
    16:00 +18°C° 0 mm 3 mps 590 mmHg 21%
    17:00 +17°C° 0 mm 3 mps 590 mmHg 21%
    18:00 +16°C° 0 mm 2 mps 590 mmHg 23%
    19:00 +14°C° 0 mm 2 mps 589 mmHg 26%
    20:00 +13°C° 0 mm 2 mps 589 mmHg 28%
    21:00 +12°C° 0 mm 2 mps 589 mmHg 30%
    22:00 +11°C° 0 mm 1 mps 588 mmHg 32%
    23:00 +11°C° 0 mm 1 mps 588 mmHg 33%

    20 October, Sunday

    Time Temperature Precipitation Wind Pressure Humidity
    00:00 +10°C° 0 mm 1 mps 588 mmHg 35%
    01:00 +9°C° 0 mm 1 mps 588 mmHg 38%
    02:00 +8°C° 0 mm 0 mps 587 mmHg 40%
    03:00 +7°C° 0 mm 0 mps 587 mmHg 41%
    04:00 +7°C° 0 mm 0 mps 587 mmHg 42%
    05:00 +6°C° 0 mm 0 mps 586 mmHg 44%
    06:00 +8°C° 0 mm 0 mps 587 mmHg 40%
    07:00 +9°C° 0 mm 0 mps 589 mmHg 36%
    08:00 +11°C° 0 mm 0 mps 590 mmHg 32%
    09:00 +13°C° 0 mm 1 mps 590 mmHg 29%
    10:00 +14°C° 0 mm 1 mps 590 mmHg 26%
    11:00 +16°C° 0 mm 2 mps 591 mmHg 24%
    12:00 +17°C° 0 mm 2 mps 591 mmHg 21%
    13:00 +18°C° 0 mm 3 mps 590 mmHg 18%
    14:00 +19°C° 0 mm 4 mps 590 mmHg 16%
    15:00 +18°C° 0 mm 4 mps 590 mmHg 15%
    16:00 +18°C° 0 mm 4 mps 590 mmHg 14%
    17:00 +17°C° 0 mm 5 mps 590 mmHg 14%
    18:00 +15°C° 0 mm 5 mps 589 mmHg 16%
    19:00 +13°C° 0 mm 4 mps 589 mmHg 18%
    20:00 +12°C° 0 mm 4 mps 589 mmHg 20%
    21:00 +11°C° 0 mm 4 mps 589 mmHg 22%
    22:00 +10°C° 0 mm 3 mps 588 mmHg 25%
    23:00 +9°C° 0 mm 2 mps 588 mmHg 27%

    21 October, Monday

    Time Temperature Precipitation Wind Pressure Humidity
    00:00 +9°C° 0 mm 2 mps 588 mmHg 31%
    01:00 +8°C° 0 mm 2 mps 587 mmHg 35%
    02:00 +7°C° 0 mm 2 mps 587 mmHg 39%
    03:00 +7°C° 0 mm 2 mps 586 mmHg 43%
    04:00 +6°C° 0 mm 2 mps 586 mmHg 47%
    05:00 +6°C° 0 mm 2 mps 586 mmHg 51%
    06:00 +7°C° 0 mm 2 mps 587 mmHg 47%
    07:00 +9°C° 0 mm 1 mps 588 mmHg 43%
    08:00 +10°C° 0 mm 1 mps 588 mmHg 39%
    09:00 +12°C° 0 mm 1 mps 589 mmHg 34%
    10:00 +14°C° 0 mm 1 mps 589 mmHg 29%
    11:00 +15°C° 0 mm 1 mps 590 mmHg 24%
    12:00 +16°C° 0 mm 2 mps 590 mmHg 21%
    13:00 +17°C° 0 mm 2 mps 590 mmHg 18%
    14:00 +18°C° 0 mm 3 mps 589 mmHg 14%
    15:00 +18°C° 0 mm 3 mps 589 mmHg 14%
    16:00 +18°C° 0 mm 3 mps 589 mmHg 14%
    17:00 +18°C° 0 mm 3 mps 588 mmHg 13%
    18:00 +16°C° 0 mm 3 mps 588 mmHg 15%
    19:00 +13°C° 0 mm 3 mps 587 mmHg 17%
    20:00 +12°C° 0 mm 2 mps 587 mmHg 19%
    21:00 +10°C° 0 mm 2 mps 586 mmHg 20%
    22:00 +9°C° 0 mm 2 mps 586 mmHg 21%
    23:00 +9°C° 0 mm 2 mps 586 mmHg 21%

    22 October, Tuesday

    Time Temperature Precipitation Wind Pressure Humidity
    00:00 +9°C° 0 mm 1 mps 586 mmHg 23%
    01:00 +8°C° 0 mm 1 mps 585 mmHg 25%
    02:00 +7°C° 0 mm 1 mps 585 mmHg 27%
    03:00 +7°C° 0 mm 1 mps 584 mmHg 28%
    04:00 +6°C° 0 mm 1 mps 584 mmHg 29%
    05:00 +6°C° 0 mm 1 mps 584 mmHg 30%
    06:00 +7°C° 0 mm 1 mps 585 mmHg 27%
    07:00 +8°C° 0 mm 0 mps 586 mmHg 24%
    08:00 +10°C° 0 mm 0 mps 587 mmHg 22%
    09:00 +12°C° 0 mm 1 mps 588 mmHg 20%
    10:00 +14°C° 0 mm 1 mps 588 mmHg 19%
    11:00 +15°C° 0 mm 1 mps 589 mmHg 18%
    12:00 +16°C° 0 mm 2 mps 589 mmHg 16%
    13:00 +17°C° 0 mm 2 mps 588 mmHg 15%
    14:00 +18°C° 0 mm 3 mps 588 mmHg 13%
    15:00 +18°C° 0 mm 3 mps 588 mmHg 13%
    16:00 +18°C° 0 mm 4 mps 588 mmHg 13%
    17:00 +17°C° 0 mm 4 mps 587 mmHg 13%
    18:00 +14°C° 0 mm 3 mps 587 mmHg 16%
    19:00 +12°C° 0 mm 3 mps 586 mmHg 19%
    20:00 +10°C° 0 mm 2 mps 586 mmHg 22%
    21:00 +10°C° 0 mm 2 mps 586 mmHg 23%
    22:00 +9°C° 0 mm 2 mps 585 mmHg 25%
    23:00 +8°C° 0 mm 2 mps 585 mmHg 26%
    Show more